Presure
208 216 236 182 224 134 165 104 153 147 102 138 110 141 104 104 114 125 112 121 124 134 121 124 121 124 119 102 133 129 116 99 125 124 128 119 135 140 134 129 93 117 123 115 117
195 213 223 239 190 130 123 159 131 148 144 125 119 123 112 140 129 140 110 120 117 128 125 128 104 129 101 119 117 114 123 121 123 82 126 83 112 113 118 92 102 114 119 123 122
204 226 217 230 124 126 145 232 195 133 154 132 149 151 169 153 127 113 122 133 117 120 120 121 127 105 119 119 112 117 104 141 129 113 124 121 121 113 111 122 117 117 117 123 123
196 200 205 219 230 135 136 131 150 136 159 185 129 147 143 130 147 125 105 112 121 137 121 123 122 118 134 123 124 123 131 110 114 123 121 113 107 111 81 142 122 124 118 125 128
195 206 223 208 220 184 140 220 125 121 166 181 137 155 127 165 125 113 128 133 129 117 118 112 119 128 103 107 115 137 118 122 117 101 146 132 106 113 115 117 126 126 127 133 125
193 200 211 173 213 200 230 149 201 154 154 123 144 158 165 111 153 160 161 127 129 110 134 123 114 110 123 125 118 127 135 127 122 89 88 113 116 118 121 139 113 130 131 125 127
199 195 205 223 210 213 249 223 126 176 195 143 141 150 141 157 111 127 124 137 124 130 130 128 120 115 120 145 120 114 119 122 82 116 109 109 112 123 124 132 135 88 131 131 135
191 194 201 129 206 211 215 148 130 164 136 148 142 206 149 131 164 133 128 125 135 149 162 161 122 134 110 110 110 107 103 104 109 111 119 119 133 139 137 125 126 130 131 137 134
185 194 193 195 215 204 199 169 132 191 138 172 129 147 157 150 182 165 125 112 161 116 119 122 126 133 142 128 117 111 110 113 143 145 133 125 121 128 128 125 134 140 134 135 86
190 187 194 203 211 210 187 206 149 224 133 162 212 126 145 164 175 148 138 160 168 140 135 129 128 131 136 145 128 132 122 115 120 125 122 143 137 131 139 138 147 135 125 117 146
185 186 192 197 207 166 204 211 148 224 216 157 140 140 114 146 160 135 164 142 146 120 84 138 172 131 133 133 136 130 156 143 140 132 145 133 124 129 133 148 93 75 140 134 137
195 188 189 196 200 215 196 202 210 208 224 139 216 191 154 135 171 149 125 139 166 143 129 133 138 154 129 153 122 137 143 127 141 125 125 126 101 114 127 89 129 141 134 136 144
196 191 193 194 208 201 211 196 204 211 162 230 194 126 200 231 196 194 179 154 154 133 126 133 180 156 142 136 161 125 136 140 134 126 132 130 105 133 133 136 138 143 146 138 149
191 192 193 195 196 195 208 200 199 204 207 220 133 173 229 234 125 160 152 157 137 131 176 185 198 66 164 125 145 151 155 125 129 124 125 133 123 62 131 134 133 125 141 140 148
196 186 196 200 190 199 195 210 212 201 136 203 131 217 143 134 222 132 141 126 134 190 225 137 149 187 173 156 142 155 147 138 123 132 132 135 173 131 121 141 141 140 151 158 163
197 191 197 194 192 192 198 203 214 218 201 206 172 214 224 211 235 126 116 229 162 160 134 140 130 144 218 156 133 194 183 166 112 132 137 140 139 145 156 171 212 175 208 191 193
196 192 197 197 194 185 201 201 205 215 204 200 207 195 213 220 141 178 199 146 209 189 204 141 234 157 165 181 168 202 184 121 133 200 211 158 199 187 203 207 197 195 200 207 208
197 192 195 199 196 195 192 206 203 212 224 199 199 207 206 213 212 190 224 137 220 119 234 172 164 217 140 210 226 226 126 157 139 224 219 214 217 213 213 209 203 197 224 220 226
196 198 194 203 199 195 196 194 209 202 211 227 200 199 205 207 210 214 217 223 222 203 143 232 237 227 197 256 254 246 246 204 229 214 218 224 226 227 218 211 212 224 232 240 239
194 203 200 195 192 196 196 198 202 213 205 219 224 202 198 205 205 210 215 212 220 222 226 188 210 232 230 234 250 246 241 237 241 237 234 235 241 249 241 239 230 221 235 217 219
199 192 200 200 196 195 198 199 200 211 207 213 233 218 204 198 203 205 205 211 212 215 220 220 224 227 232 231 230 228 233 235 233 223 223 223 225 223 222 225 231 235 230 239 199
192 195 200 203 202 192 189 199 205 212 200 207 212 226 201 207 201 198 200 203 201 208 208 211 212 212 207 210 246 253 263 262 259 259 258 250 254 259 257 253 205 193 245 191 229
194 204 202 204 203 197 197 198 202 211 210 208 211 226 220 224 216 212 202 204 202 201 204 207 206 211 211 213 209 207 206 206 206 205 204 234 198 195 189 183 178 226 227 211 209
192 198 207 201 206 204 190 195 205 205 216 209 208 221 223 218 224 196 194 200 203 202 200 197 197 204 202 203 204 203 201 205 200 205 195 216 200 181 170 210 192 214 210 209 209
196 198 205 199 206 200 204 201 205 201 206 206 213 204 225 212 219 213 220 213 195 201 205 214 203 196 194 196 202 198 196 195 197 198 197 217 220 186 212 212 214 216 228 232 231
203 197 208 154 198 208 205 197 206 215 202 217 215 217 227 218 214 217 212 216 225 235 193 193 193 195 195 190 192 195 189 184 220 217 153 215 221 237 242 238 235 248 246 243 241
196 201 211 200 198 205 210 203 218 219 193 220 213 220 226 219 208 210 219 221 219 225 235 234 234 236 237 246 137 244 239 244 240 236 232 228 226 222 224 224 227 228 222 222 230
Wind_Speed
30 30 30 60 45 51 47 36 59 50 32 37 31 43 27 26 26 28 27 22 21 21 20 21 20 22 25 22 27 29 26 11 21 18 24 23 28 33 34 36 18 34 35 37 40
35 30 29 36 50 47 49 71 46 49 51 36 35 36 31 37 33 36 27 23 23 23 23 22 23 21 26 29 29 30 29 29 24 5 30 15 34 36 36 15 29 36 39 41 42
32 30 31 32 50 45 50 44 61 40 54 40 51 45 57 44 33 30 29 29 25 24 23 22 23 28 29 31 28 30 25 32 32 22 25 32 37 36 37 42 39 39 39 44 46
32 35 36 33 36 46 43 45 60 34 69 67 34 51 42 36 44 33 29 27 26 28 25 25 25 26 24 32 34 37 31 26 27 31 30 34 38 38 17 49 42 45 44 49 53
39 34 33 36 34 48 56 49 50 47 69 49 48 52 40 55 36 31 33 31 31 29 29 29 28 28 30 32 38 37 34 36 32 24 35 38 29 41 42 44 49 50 53 53 53
42 35 35 38 36 41 45 68 52 65 43 43 41 54 65 27 41 42 53 35 34 31 34 32 32 32 32 35 42 39 35 37 35 19 17 44 46 44 44 52 41 55 56 55 59
47 40 37 36 38 39 38 48 54 53 52 44 44 38 42 58 32 40 39 36 36 37 36 36 35 34 35 33 42 40 40 38 13 36 41 46 51 53 55 56 58 30 60 61 65
47 45 40 39 43 40 40 51 54 45 56 47 48 57 41 42 56 43 41 40 35 39 35 43 36 36 32 35 40 37 29 32 37 40 46 52 62 57 57 54 57 61 62 66 67
50 49 46 42 41 43 43 41 53 50 49 81 49 46 64 36 49 52 42 33 52 36 38 38 39 39 37 37 41 44 21 31 47 45 44 51 64 61 57 56 62 64 63 67 25
54 50 50 45 45 44 41 42 52 43 53 72 55 50 40 59 58 48 50 48 50 45 46 44 42 40 40 36 41 42 49 48 46 48 51 48 57 63 64 65 63 62 59 44 73
57 54 52 47 47 49 46 41 52 39 45 67 48 51 32 43 53 44 55 47 42 41 14 46 49 42 42 41 42 44 42 49 53 51 47 56 66 67 64 67 28 13 70 73 76
62 58 54 51 47 44 49 46 42 44 41 54 49 50 53 54 65 53 40 45 54 52 46 47 32 44 44 49 46 48 48 52 53 53 55 59 47 57 49 21 64 72 73 76 80
64 61 59 53 48 46 46 49 45 42 51 38 59 51 49 56 50 66 78 44 40 50 45 47 53 40 46 49 51 49 52 50 55 53 54 63 42 70 68 66 72 75 76 77 80
64 64 61 57 50 48 47 50 48 45 44 39 57 50 46 49 50 56 46 52 49 46 64 66 62 7 57 45 50 47 47 52 55 54 58 63 74 3 70 72 73 66 77 80 81
68 65 64 61 52 48 48 45 47 47 45 43 56 40 54 51 48 53 55 38 54 52 50 47 47 65 59 47 55 51 53 53 54 61 64 65 69 72 62 75 76 77 76 78 80
71 67 65 62 55 51 49 48 45 44 48 44 48 41 38 46 43 49 39 47 55 56 50 53 37 54 50 56 51 61 59 50 42 65 68 61 68 75 73 76 70 75 72 79 79
72 67 66 66 58 52 49 50 47 44 50 48 44 45 39 38 50 51 49 57 54 52 59 57 51 59 57 54 56 60 63 47 64 60 64 69 71 73 65 69 74 76 75 75 76
73 68 68 65 58 54 53 50 49 46 43 52 48 45 44 40 39 43 40 58 42 39 45 57 55 49 57 55 52 53 54 62 61 54 59 62 62 62 64 67 69 73 70 72 74
73 71 69 64 60 56 56 52 49 50 45 44 50 48 45 43 41 40 39 39 40 40 61 44 45 46 57 45 47 49 49 54 51 57 59 62 65 64 64 67 68 69 70 71 72
70 70 69 64 60 57 56 53 51 50 48 43 45 50 48 44 43 41 39 39 36 37 38 46 43 43 44 45 45 46 47 49 51 49 51 56 61 64 64 65 66 67 69 72 74
73 69 68 66 66 61 59 53 52 51 50 47 42 46 49 48 45 44 40 38 37 37 36 37 39 39 41 42 43 43 46 49 50 50 51 53 55 58 61 64 67 68 70 71 75
72 71 69 68 67 64 56 57 54 50 50 48 46 42 50 49 48 47 43 41 40 38 38 37 38 39 40 39 40 40 42 46 49 50 51 51 50 53 55 57 62 66 62 73 66
75 73 69 65 69 66 60 55 54 52 50 48 47 44 44 42 46 46 43 42 42 40 39 38 38 38 38 38 39 41 42 43 44 46 48 49 53 56 59 62 65 59 61 68 72
75 71 69 68 71 68 58 55 55 52 51 50 49 46 45 44 41 46 44 44 43 42 40 40 39 39 39 39 40 42 43 45 46 48 50 51 51 58 62 61 67 64 68 71 74
76 72 70 71 70 68 62 58 57 53 52 52 50 50 44 45 41 43 37 39 42 42 42 42 42 40 40 42 43 44 45 47 49 51 53 50 51 63 59 62 63 65 62 62 65
78 75 72 65 68 66 63 58 58 56 52 51 50 48 43 45 44 40 42 39 35 32 41 41 42 42 43 42 45 46 47 49 44 46 55 51 51 46 45 47 50 53 55 57 60
79 78 74 74 68 65 65 58 55 54 52 49 48 45 44 45 45 40 37 35 35 33 31 32 34 33 31 28 45 28 30 28 29 31 35 37 39 42 45 49 52 53 56 59 60
Wind_Direction
251 248 239 217 224 227 229 224 229 213 217 213 215 218 207 202 208 215 214 220 224 232 228 230 230 241 247 284 258 262 270 309 274 289 287 287 295 298 295 287 322 299 299 304 303
238 247 241 230 225 213 222 224 222 218 212 212 214 215 211 222 219 230 213 218 220 233 228 233 249 236 270 258 263 269 273 276 283 311 294 308 285 290 288 309 317 304 300 300 302
259 262 245 236 204 207 229 227 221 219 231 215 228 231 235 237 218 218 222 231 221 231 227 234 239 256 251 259 269 266 285 276 279 265 279 281 283 290 297 291 297 303 307 303 304
250 243 241 239 230 215 216 206 236 221 229 216 218 228 222 220 233 219 224 221 223 235 232 231 236 238 245 255 261 265 263 279 282 279 276 279 299 299 309 293 302 299 310 304 302
250 257 252 238 234 227 210 224 211 211 222 228 229 232 220 229 221 222 225 230 230 227 231 232 234 241 271 271 265 263 275 274 282 288 292 293 297 292 295 307 300 303 302 300 304
250 249 255 235 235 222 224 233 225 230 229 217 223 240 239 228 237 236 237 228 230 238 240 237 238 249 244 252 263 264 266 275 282 292 293 293 291 300 304 288 310 300 300 305 303
251 245 253 250 238 229 232 226 212 230 221 224 213 233 220 245 223 227 228 229 232 234 236 235 238 245 246 253 264 274 276 274 302 283 295 301 301 298 298 297 296 308 302 303 302
246 245 247 229 234 232 230 222 213 230 230 235 233 233 237 219 249 225 227 231 233 243 253 257 255 246 259 263 271 282 293 289 291 294 288 290 283 285 289 298 299 300 302 299 304
240 245 242 240 242 231 229 231 215 228 212 229 218 226 240 230 233 253 227 239 241 242 243 243 246 249 251 258 265 277 281 283 273 273 278 284 289 291 293 298 296 296 302 304 325
241 238 245 246 243 235 230 230 226 232 215 232 229 226 228 246 240 238 237 249 257 232 237 246 247 249 254 255 254 260 271 281 286 284 284 284 282 290 286 291 292 301 307 305 299
236 238 241 243 241 228 234 231 226 235 233 238 213 242 238 219 244 240 253 226 236 244 263 242 262 253 255 257 259 260 267 267 272 278 278 279 287 289 293 289 321 333 299 304 303
233 238 236 240 240 243 234 233 231 232 237 220 237 228 241 220 241 234 236 248 257 243 243 247 254 254 256 266 264 260 260 272 271 281 284 285 306 299 287 314 307 298 304 305 301
229 235 237 235 240 240 239 234 233 234 231 237 236 236 237 241 236 242 246 234 234 240 247 247 262 251 250 255 267 266 265 270 271 282 282 281 294 289 297 298 298 295 295 303 298
225 231 235 236 235 235 242 235 234 234 236 239 227 232 245 246 237 229 233 230 233 247 257 253 253 340 269 265 255 268 269 277 275 283 283 280 292 22 300 302 301 309 297 300 296
224 230 235 235 229 237 234 242 237 235 237 236 230 242 232 238 244 241 231 254 244 249 257 250 241 263 267 251 254 259 258 273 283 278 280 283 284 294 302 291 293 297 294 293 295
223 227 232 233 232 233 238 241 244 239 237 238 238 243 244 242 248 250 228 250 245 244 255 248 256 251 265 258 267 269 268 276 283 279 279 288 285 283 287 290 292 291 295 298 299
223 225 229 231 232 229 240 240 242 245 238 237 240 241 243 247 245 246 248 240 251 251 252 252 263 254 266 260 259 272 275 276 278 280 280 284 283 285 287 290 293 295 295 295 297
222 224 229 231 232 232 236 242 241 244 245 239 238 241 242 244 248 251 255 244 260 265 263 258 261 267 264 270 272 271 282 279 281 278 280 283 284 285 286 287 289 292 294 295 297
220 224 228 229 232 231 235 238 244 241 242 243 239 240 244 245 245 251 254 259 260 263 250 267 269 270 268 273 272 272 274 274 276 279 282 283 285 287 288 289 292 294 298 301 302
220 224 226 230 230 232 234 237 242 245 243 247 241 239 242 245 247 251 254 255 262 264 267 268 272 272 273 276 276 277 279 280 281 282 286 289 292 293 293 294 295 297 300 299 301
217 221 225 228 230 233 235 237 240 244 245 247 246 240 241 244 246 250 252 258 261 264 267 270 273 274 277 279 281 282 282 281 282 283 286 288 292 292 292 295 296 297 299 302 303
216 221 223 225 227 229 231 239 243 244 242 247 247 246 242 243 246 250 253 256 259 265 267 270 272 274 274 278 281 281 280 280 281 283 287 291 292 291 293 294 298 300 301 301 305
216 221 223 225 226 230 231 236 243 245 246 248 251 250 248 245 244 248 253 257 260 263 267 270 274 277 280 283 284 285 286 288 290 292 291 292 291 291 292 294 298 303 305 303 303
216 218 221 222 224 228 226 234 242 244 245 247 249 250 249 249 249 248 251 255 260 264 267 270 274 278 280 282 284 285 287 290 290 292 291 294 296 296 295 300 300 303 303 302 303
215 218 218 222 225 228 230 233 239 241 244 245 246 248 247 250 252 250 255 256 258 263 267 272 275 278 280 283 288 288 289 290 292 294 294 296 297 296 300 302 301 300 301 304 305
215 218 218 214 225 227 229 229 236 239 240 242 244 248 245 249 252 254 255 260 267 271 265 269 273 278 282 285 286 288 288 288 294 295 296 296 296 302 307 306 307 309 311 312 313
214 217 220 223 225 228 231 233 236 238 236 241 242 244 241 244 250 255 258 264 267 274 276 277 282 286 287 288 284 296 299 308 307 306 307 308 309 309 312 312 312 312 311 312 315